Welcome to the New NWS' Forecast!
Most changes are behind the scenes, but click here for differences you might notice.

Regional Weather Roundup (RWR)

Issued by Austin/San Antonio, TX (EWX)

                            
885 
ASUS44 KEWX 201301
RWREWX
SOUTH TEXAS REGIONAL WEATHER ROUNDUP
NATIONAL WEATHER SERVICE AUSTIN/SAN ANTONIO TX
800 AM CDT MON AUG 20 2018

NOTE: "FAIR" INDICATED FEW OR NO CLOUDS BELOW 12,000 FEET WITH NO
SIGNIFICANT WEATHER AND/OR OBSTRUCTIONS TO VISIBILITY.

* - THESE STATIONS ARE NOT NWS OR FAA STATIONS...AND ARE NOT SUBJECT
    TO NWS AND FAA QUALITY CONTROL.
 
TXZ171-172-183>190-201400-
TEXAS HILL COUNTRY AND EDWARDS PLATEAU
  
CITY           SKY/WX    TMP DP  RH WIND       PRES   REMARKS
JUNCTION       CLEAR     76  73  91 CALM      30.05R                  
*LLANO         SUNNY     79  72  78 CALM      30.04R                  
BURNET         SUNNY     78  71  79 S5        30.05R                  
*HORSESHOE BAY SUNNY     78  70  77 CALM      30.02R                  
*KERRVILLE     CLOUDY    75  71  86 SE7       30.03S                  
*FREDERICKSBRG SUNNY     75  68  79 CALM      30.04R                  
*ROCKSPRINGS   MOCLDY    73  72  94 SE8       30.10R                  
*BOERNE STAGE  CLOUDY    73  72  94 CALM      30.04R                  
*CASTROVILLE   CLOUDY    78  70  76 SE3       30.01S                  
HONDO          CLOUDY    79  74  84 E6        30.01R                  
*UVALDE        CLOUDY    77  71  80 E7        30.01R                  
DEL RIO        CLEAR     79  74  84 E13       29.96R                  
LAUGHLIN AFB   MOCLDY    79  73  82 SE10      29.98R                  
CARRIZO SPRGS  CLOUDY    79  72  78 E3        29.96R                  
*EAGLE PASS    CLOUDY    81  68  65 SE7       29.98R                  
*FAITH RANCH   MOCLDY    79  73  83 CALM      29.97R                  
$$

TXZ173-191>194-202-209-217>225-228-201400-
CENTRAL AND SOUTH CENTRAL TEXAS
  
CITY           SKY/WX    TMP DP  RH WIND       PRES   REMARKS
GEORGETOWN     CLOUDY    80  73  79 SW9       30.02R                  
AUSTIN/BERGSTM CLOUDY    79  75  87 S6        29.99R                  
AUSTIN/MABRY   NOT AVBL                                               
*AUSTIN/EXEC   CLOUDY    77  77 100 S7        30.00R                  
*LAGO VISTA    CLOUDY    78  73  82 SW3       30.03R                  
SAN MARCOS     PTSUNNY   79  74  84 S9        30.00                   
NEW BRAUNFELS  CLOUDY    80  73  79 S7        29.99R                  
RANDOLPH AFB   CLOUDY    79  74  84 S6        30.01R                  
PT SAN ANTONIO CLOUDY    79  73  80 SE7       30.00R                  
SAN ANTONIO    CLOUDY    79  72  79 SE9       30.01R                  
STINSON FIELD  CLOUDY    81  72  74 SE3       29.98R                  
*LA GRANGE     CLOUDY    80  78  93 S5        29.98R                  
*GIDDINGS      CLOUDY    79  74  85 S5        30.01R                  
*GONZALES      CLOUDY    81  77  89 S6        29.99S                  
$$

TXZ163>164-176>182-195>201-210>213-226-227-235-201400-
SOUTHEAST TEXAS
  
CITY           SKY/WX    TMP DP  RH WIND       PRES   REMARKS
COLLEGE STN    CLOUDY    79  77  94 S6        29.98R                  
*BRYAN         CLOUDY    80  80  99 S6        30.00R                  
*CALDWELL      CLOUDY    80  75  85 SW7       29.99R                  
*CROCKETT        N/A     81  75  83 CALM      30.02R                  
*BRENHAM       CLOUDY    81  78  91 SW8       30.00R                  
HUNTSVILLE     CLOUDY    80  75  84 SW8       29.99R                  
CONROE         CLOUDY    82  79  90 SW5       30.00R HX  92           
HOUSTON BUSH   FAIR      83  78  85 SW6       29.99R HX  93           
HOUSTON HOBBY  FAIR      81  78  91 S7        29.99R                  
*HOUSTON SW AP FAIR      76  76  99 MISG      30.00S                  
PEARLAND       FAIR      80  77  90 S3        30.01R                  
HOUSTON HOOKS  FAIR      82  78  88 S7        29.99S HX  91           
ELLINGTON FLD  NOT AVBL                                               
SUGAR LAND     FAIR      83  77  82 S7        29.99R HX  92           
*HOUSTON EXEC  FAIR      79  79 100 SW6       30.00S                  
*CLEVELAND MUN FAIR      77  75  93 CALM      30.00S                  
*WHARTON         N/A     78  75  90 CALM      30.00S                  
*COLUMBUS      FAIR      77  75  94 CALM      30.01R                  
*EAGLE LAKE    CLOUDY    79  77  94 CALM      29.99S                  
$$

TXZ214>216-236>238-201400-
THE UPPER TEXAS COAST
  
CITY           SKY/WX    TMP DP  RH WIND       PRES   REMARKS
*ORANGE        FAIR      81  78  92 SW6       30.01R                  
PORT ARTHUR    FAIR      80  75  84 SW5       29.99R                  
GALVESTON      FAIR      85  78  80 SW9       30.00R HX  96           
ANGLETON       FAIR      80  76  87 CALM      29.99R                  
*BAY CITY      SUNNY     78  77  96 CALM      29.99R                  
PALACIOS       MOSUNNY   85  80  85 S7        29.99R HX  99           
$$

TXZ229>234-239>247-201400-
TEXAS COASTAL BEND AND RIO GRANDE PLAINS
  
CITY           SKY/WX    TMP DP  RH WIND       PRES   REMARKS
VICTORIA       MOSUNNY   80  76  87 S3        29.99R                  
*BEEVILLE      SUNNY     77  75  93 SE3       29.98S                  
ROCKPORT       SUNNY     82  77  84 S5        29.97R HX  90           
*PORT ARANSAS  SUNNY     81  78  90 S3        29.99R HX  90           
*PORT LAVACA   SUNNY     82  77  87 SW3       29.99R HX  90           
*INGLESIDE     SUNNY     83  77  81 S7        29.97R HX  93           
CORPUS CHRISTI MOSUNNY   79  79 100 SE6       29.96R                  
CORPUS NAS     MOSUNNY   83  79  88 S8        29.96R HX  94           
*ROBSTOWN      SUNNY     79  76  90 CALM      29.97R                  
ALICE          SUNNY     77  75  93 SE6       29.96R                  
KINGSVILLE NAS MOSUNNY   80  76  87 SE8       29.96R                  
COTULLA        CLOUDY    78  74  87 SE12      29.97R                  
LAREDO         CLOUDY    80  73  79 SE12      29.95R                  
$$

TXZ248>255-201400-
DEEP SOUTH TEXAS
  
CITY           SKY/WX    TMP DP  RH WIND       PRES   REMARKS
BROWNSVILLE    FAIR      81  78  91 SE6       29.96R                  
PORT ISABEL    FAIR      81  75  82 SE3       29.95R                  
HARLINGEN      SUNNY     80  77  90 SE8       29.94R                  
*HEBBRONVILLE  SUNNY     75  72  91 CALM      29.96R                  
MCALLEN        SUNNY     82  77  84 SE6       29.94R HX  90           
*WESLACO       CLOUDY    80  74  82 SE3       29.94R                  
FALFURRIAS     SUNNY     78  74  90 E5        29.95R                  
EDINBURG       FAIR      81  75  82 E5        29.95R                  
*ZAPATA        FAIR      80  72  76 SE5       29.93S                  
$$

TXZ213>215-236>238-242>244-246-247-251-254-255-201400-
CMAN STATIONS
  
STATION/POSITION TIME  TEMP    WIND        PRES    WAVE
                       AIR SEA DIR/SP/G            HT/PER
                 (UTC) (F)     (DEG/KT/KT) (MB)    (FT/S)
SABINE PASS      1230   84 91  210/  5/ 10 1017.2
SEA RIM ST PARK  1200   84     220/ 12/ 15 1015.7
NORTH JETTY/GLS  1224   85 85  220/ 13/ 15 1015.1
EAGLE POINT      1230   83 86  220/  6/  9 1015.7
MORGANS POINT    1230   83 87  210/  4/  7 1015.6
PORT O'CONNOR    1230   83 86  190/  9/ 11 1014.6
PORT ARANSAS     1200   81 83  170/  6/  7 1014.5
MALAQUITE BEACH  1230   80 80  150/  5/  5 1014.3
BAFFIN BAY       1230   80 82  140/  8/ 10 1014.5
PORT ISABEL      1224   80 82  120/  5/  6 1014.3
$$